Preview of NWS' New Version of Forecast
This preview is not operational and should not be used for support decisions.

Regional Weather Roundup (RWR)

Issued by National Weather Service (NWS)

                            
000
ASUS44 KMEG 192000
RWRTN 
TENNESSEE HOURLY STATE WEATHER ROUNDUP
NATIONAL WEATHER SERVICE MEMPHIS TN
300 PM CDT WED JUN 19 2019

TNZ002-004-019-021-049-052-054-088>092-192100-
WEST TENNESSEE
  
CITY           SKY/WX    TMP DP  RH WIND       PRES   REMARKS
MEMPHIS INTL   PTSUNNY   90  74  59 SW17      29.72F HX  99           
NWS MEMPHIS      N/A    N/A N/A N/A MISG        N/A                   
JACKSON        FAIR      89  73  59 SW13      29.72F HX  97           
DYERSBURG      LGT RAIN  85  70  60 SW17G24   29.71F                  
$$

TNZ008-025-027-028-033-062-065-066-192100-
NORTH MIDDLE TENNESSEE
  
CITY           SKY/WX    TMP DP  RH WIND       PRES   REMARKS
NASHVILLE      PTSUNNY   87  68  52 SW9       29.75F HX  90           
CLARKSVILLE    FAIR      86  71  60 SW13G20   29.71F HX  91           
SMYRNA         FAIR      86  71  60 SW12G21   29.76F HX  91           
CROSSVILLE     HVY RAIN  71  66  84 W9G22     29.85S VSB 3/4          
$$

TNZ061-075-076-078-094-096-097-192100-
SOUTH MIDDLE TENNESSEE
  
CITY           SKY/WX    TMP DP  RH WIND       PRES   REMARKS
$$

TNZ017-018-042-046-047-192100-
NORTHEAST TENNESSEE
  
CITY           SKY/WX    TMP DP  RH WIND       PRES   REMARKS
TRI CITIES     PTSUNNY   80  69  69 W12       29.83F                  
$$

TNZ012-013-036-069-073-074-192100-
CENTRAL EAST TENNESSEE
  
CITY           SKY/WX    TMP DP  RH WIND       PRES   REMARKS
KNOXVILLE      FAIR      82  71  69 SW8       29.78F                  
OAK RIDGE      FAIR      86  69  56 VRB5      29.79F HX  90           
$$

TNZ083-085-099-192100-
SOUTHEAST TENNESSEE
  
CITY           SKY/WX    TMP DP  RH WIND       PRES   REMARKS
CHATTANOOGA    FAIR      88  68  51 W8        29.78F HX  91           
$$

SKY/WX REPORTED AS FAIR MEANS FEW OR NO CLOUDS BELOW
12 THOUSAND FEET.